Regional Weather Roundup
Issued by NWS

Home | Current Version | Previous Version | Graphics & Text | Print | Product List | Glossary On
Versions: 1 2 3 4 5 6 7 8 9 10 11 12 13 14 15 16 17 18 19 20 21 22 23 24 25 26 27 28 29 30 31 32 33 34 35 36 37 38 39 40 41 42 43 44 45 46 47 48 49 50
000
ASUS45 KABQ 132201
RWRNM
NEW MEXICO REGIONAL WEATHER ROUNDUP
NATIONAL WEATHER SERVICE ALBUQUERQUE NM
300 PM MST SAT FEB 13 2016

NOTE: "FAIR" MEANS FEW OR NO CLOUDS BELOW 12,000 FEET AGL WITH NO
       SIGNIFICANT WEATHER OR OBSTRUCTIONS TO VISION.

      THIS PRODUCT IS RELEASED AS TWO VERSIONS.  ONE VERSION NEAR
      THE TOP OF THE HOUR CONTAINING PRELIMINARY DATA FROM ALBUQUERQUE
      AND OTHER STATIONS.  A FINAL VERSION WITH ADDITIONAL DATA IS
      ISSUED ABOUT 10 MINUTES AFTER THE HOUR.

NMZ501-503-504-510>518-132300-
NORTHWEST PLATEAU/NORTHCENTRAL MOUNTAINS

CITY           SKY/WX    TMP DP  RH WIND       PRES   REMARKS
FARMINGTON     FAIR      63  21  20 NW8       30.13F
SANTA FE       FAIR      65  15  14 SW13      30.11F
TAOS           FAIR      57  21  24 W14G25    30.15F

$$
NMZ402-403-502-505>509-132300-
WESTCENTRAL MOUNTAINS/SOUTHWEST MOUNTAINS

CITY           SKY/WX    TMP DP  RH WIND       PRES   REMARKS
GALLUP         FAIR      65   7  10 W12       30.19F
SILVER CITY      N/A     72   9   8 SW14      30.17F

$$
NMZ407-409-411-412-132300-
SOUTHERN DESERTS

CITY           SKY/WX    TMP DP  RH WIND       PRES   REMARKS
DEMING         FAIR      73   9   8 SW7       30.12F
HOLLOMAN AFB   FAIR      73   8   8 S7        30.10F
ALAMOGORDO     FAIR      73  12   9 S12       30.12F
T OR C         FAIR      72   9   8 S12       30.10F

$$
NMZ519>523-132300-
CENTRAL VALLEYS/CENTRAL HIGHLANDS

CITY           SKY/WX    TMP DP  RH WIND       PRES   REMARKS
ALBUQUERQUE    FAIR      66  15  14 CALM      30.12F
DOUBLE EAGLE   SUNNY     66  18  15 VRB7      30.14F
MORIARTY ARPT  FAIR      66   9  10 W17G24    30.15F
CLINES CORNERS FAIR      61  14  16 W23G30    30.14F
BELEN          FAIR      69  13  11 SE3       30.11F
SOCORRO        NOT AVBL

$$
NMZ524>526-539-540-132300-
SOUTHCENTRAL MOUNTAINS

CITY           SKY/WX    TMP DP  RH WIND       PRES   REMARKS
RUIDOSO        FAIR      64   7  10 SW15G21   30.20F

$$
NMZ527>531-132300-
NORTHEAST HIGHLANDS/NORTHEAST PLAINS

CITY           SKY/WX    TMP DP  RH WIND       PRES   REMARKS
LAS VEGAS      FAIR      64  14  14 SW18G31   30.08F
RATON          FAIR      68   9  10 W25G33    29.99F
CLAYTON        FAIR      74  18  12 SW24G30   29.93F

$$
NMZ532>537-132300-
EASTCENTRAL PLAINS

CITY           SKY/WX    TMP DP  RH WIND       PRES   REMARKS
TUCUMCARI      FAIR      77  19  11 SW18      29.96F
CANNON AFB     FAIR      73  14  10 SW18G25   30.03F
CLOVIS AIRPORT FAIR      73  21  14 SW25      30.04F

$$
NMZ028-029-538-132300-
SOUTHEAST PLAINS

CITY           SKY/WX    TMP DP  RH WIND       PRES   REMARKS
ROSWELL        FAIR      73  27  18 S13       30.05F
ARTESIA        FAIR      73  30  20 SE13      30.05F
CARLSBAD       FAIR      73  31  21 S14       30.04F
HOBBS          SUNNY     73  27  17 S14G21    30.08F


$$



USA.gov is the U.S. government's official web portal to all federal, state and local government web resources and services.